Weather History for Oujda, Morocco

Change the Weather History Date:

Monday, September 30, 2013

  Actual Average Record
Temperature  
Mean Temperature 74 °F -  
Max Temperature 89 °F 76 °F 89 °F (2004)
Min Temperature 60 °F 53 °F 53 °F (2000)
Cooling Degree Days 10    
Growing Degree Days 24 (Base 50)    
Moisture  
Dew Point 59 °F    
Average Humidity 58    
Maximum Humidity 88    
Minimum Humidity 24    
Precipitation  
Precipitation 0.00 in 0.04 in - ()
Sea Level Pressure  
Sea Level Pressure 29.96 in    
Wind  
Wind Speed 8 mph ()    
Max Wind Speed 20 mph    
Max Gust Speed -    
Visibility 7.4 miles    
Events      
Averages and records for this station are not official NWS values.
T = Trace of Precipitation, MM = Missing Value Source: Averaged Metar Reports

Daily Weather History Graph

Daily Weather History Graph

Search for Another Location

Airport:

Trip Planner

Search our weather history database for the weather conditions in past years. The results will help you decide how hot, cold, wet, or windy it might be!

Date:

Astronomy

Sep. 30, 2013 Rise Set
Actual Time 6:01 AM WET 5:53 PM WET
Civil Twilight 5:36 AM WET 6:18 PM WET
Nautical Twilight 5:07 AM WET 6:47 PM WET
Astronomical Twilight 4:37 AM WET 7:16 PM WET
Moon 1:34 AM WET (9/30) 3:07 PM WET (9/30)
Length of Visible Light 12h 41m
Length of Day
11h 51m
Waning Crescent, 20% of the Moon is Illuminated
Sep 30
Waning Crescent
Oct 5
New
Oct 11
First Quarter
Oct 18
Full
Oct 26
Last Quarter

Hourly Weather History & Observations

Time (WET) Temp. Heat Index Dew Point Humidity Pressure Visibility Wind Dir Wind Speed Gust Speed Precip Events Conditions
12:00 AM 63 °F - 56 °F 73% 30.00 in 9 mi SW 3.5 mph - -   Partly Cloudy
12:00 AM 62.6 °F - 57.2 °F 82% 30.04 in 6.2 mi SW 3.5 mph - N/A   Mostly Cloudy
3:00 AM 61 °F - 57 °F 83% 29.97 in 9 mi SSW 5.8 mph - -   Scattered Clouds
3:00 AM 60.8 °F - 57.2 °F 88% 30.01 in 6.2 mi SSW 5.8 mph - N/A   Mostly Cloudy
4:00 AM 62.6 °F - 57.2 °F 82% 29.98 in 3.1 mi South 6.9 mph - N/A   Mostly Cloudy
5:00 AM 64.4 °F - 57.2 °F 77% 29.98 in 3.1 mi SSW 11.5 mph - N/A   Mostly Cloudy
8:00 AM 75.2 °F - 59.0 °F 57% 30.01 in - West 13.8 mph - N/A   Clear
9:00 AM 77 °F - 58 °F 41% 29.94 in 9 mi West 16.1 mph - -   Scattered Clouds
9:00 AM 77.0 °F - 57.2 °F 50% 30.01 in - West 16.1 mph - N/A   Clear
11:00 AM 84.2 °F 83.8 °F 59.0 °F 42% 29.98 in - WSW 11.5 mph - N/A   Clear
12:00 PM 87 °F - 57 °F 25% 29.86 in 9 mi WSW 15.0 mph - -   Scattered Clouds
12:00 PM 86.0 °F 84.5 °F 55.4 °F 35% 29.95 in - West 12.7 mph - N/A   Clear
1:00 PM 86.0 °F 84.5 °F 55.4 °F 35% 29.95 in - West 12.7 mph - N/A   Clear
2:00 PM 89.6 °F 88.1 °F 57.2 °F 33% 29.92 in - North 6.9 mph - N/A   Clear
3:00 PM 89 °F - 57 °F 24% 29.81 in 9 mi NNW 9.2 mph - -   Scattered Clouds
3:00 PM 89.6 °F 88.9 °F 59.0 °F 36% 29.92 in - NNW 10.4 mph - N/A   Clear
4:00 PM 82.4 °F 82.5 °F 59.0 °F 45% 29.92 in - North 19.6 mph - N/A   Clear
5:00 PM 78.8 °F - 60.8 °F 54% 29.95 in - North 17.3 mph - N/A   Clear
6:00 PM 74 °F - 62 °F 59% 29.89 in 9 mi North 13.8 mph - -   Scattered Clouds
6:00 PM 73.4 °F - 62.6 °F 69% 29.95 in - North 13.8 mph - N/A   Clear
7:00 PM 71.6 °F - 62.6 °F 73% 29.98 in - North 15.0 mph - N/A   Clear
8:00 PM 71.6 °F - 62.6 °F 73% 29.98 in - North 8.1 mph - N/A   Clear
9:00 PM 70 °F - 61 °F 67% 29.94 in 9 mi North 4.6 mph - -   Scattered Clouds
10:00 PM 68.0 °F - 60.8 °F 78% 30.01 in - Variable 2.3 mph - N/A   Clear